Home > Weather > Katowice > Past weeks

Flag for Poland Weather for the Past 2 Weeks in Katowice, Poland

Now
41 °F

Clear.


Feels Like: 37 °F
Forecast: 44 / 50 °F
Wind: 6 mph from Southeast

Location: Katowice Airport

Current Time: Feb 8, 2016 at 1:40:05 AM

Latest Report: Feb 8, 2016 at 1:00 AM


Visibility: 10 mi

Pressure: 29.80 "Hg

Humidity: 70%

Dew point: 32 °F

Location of KatowiceLocation

Historic Weather in Katowice — Graph

°F

Katowice Temperature Yesterday

Maximum temperature yesterday: 52 °F (at 1:00 PM)
Minimum temperature yesterday: 32 °F (at 5:00 AM)
Average temperature yesterday: 41 °F

High & Low Weather Summary for the Past Weeks

 TemperatureHumidityPressure
High54 °F (Jan 30, 2:00 PM)100% (Jan 24, 2:30 AM)30.42 "Hg (Jan 24, 2:30 AM)
Low25 °F (Jan 24, 12:00 AM)44% (Jan 30, 2:30 PM)29.62 "Hg (Jan 31, 3:00 AM)
Average39 °F83%30.06 "Hg
* Reported Midnight between Jan 23 and Jan 24 — Midnight between Feb 7 and Feb 8, Katowice, Weather by CustomWeather, © 2016

Note: Actual official high and low records may vary slightly from our data, if they occured in-between our weather recording intervals... More about our weather records

Advertising

Katowice Weather History for the Previous 24 Hours

 ConditionsComfort  
Time TempWeatherWind HumidityBarometerVisibility
12:00 AM
Mon, Feb 8
43 °FClear.7 mph66%29.80 "Hg10 mi
11:30 PM
Sun, Feb 7
43 °FClear.8 mph71%29.80 "Hg10 mi
11:00 PM43 °FClear.8 mph71%29.80 "Hg10 mi
10:30 PM45 °FClear.9 mph66%29.80 "Hg10 mi
10:00 PM45 °FClear.10 mph66%29.80 "Hg10 mi
9:30 PM45 °FClear.12 mph66%29.80 "Hg10 mi
9:00 PM45 °FClear.13 mph66%29.77 "Hg10 mi
8:30 PM45 °FClear.12 mph66%29.77 "Hg10 mi
8:00 PM43 °FClear.9 mph71%29.77 "Hg10 mi
7:30 PM43 °FClear.10 mph71%29.77 "Hg10 mi
7:00 PM43 °FClear.7 mph66%29.77 "Hg10 mi
6:30 PM43 °FClear.7 mph66%29.77 "Hg10 mi
6:00 PM43 °FClear.10 mph66%29.77 "Hg10 mi
5:30 PM45 °FClear.12 mph61%29.77 "Hg10 mi
5:00 PM45 °FClear.15 mph61%29.77 "Hg10 mi
4:30 PM46 °FSunny.13 mph57%29.77 "Hg10 mi
4:00 PM46 °FSunny.15 mph57%29.80 "Hg10 mi
3:30 PM48 °FSunny.21 mph54%29.77 "Hg10 mi
3:00 PM50 °FPassing clouds.18 mph50%29.77 "HgN/A
2:30 PM52 °FSunny.17 mph47%29.77 "Hg10 mi
2:00 PM50 °FPassing clouds.16 mph47%29.77 "HgN/A
1:30 PM50 °FSunny.18 mph47%29.80 "Hg10 mi
1:00 PM52 °FPassing clouds.20 mph44%29.80 "HgN/A
12:30 PM50 °FPassing clouds.16 mph50%29.80 "HgN/A
12:00 PM46 °FSunny.8 mph57%29.83 "Hg10 mi
11:30 AM46 °FSunny.13 mph57%29.83 "Hg10 mi
11:00 AM46 °FSunny.9 mph57%29.83 "Hg10 mi
10:30 AM41 °FSunny.10 mph66%29.83 "Hg10 mi
10:00 AM39 °FSunny.12 mph70%29.83 "Hg10 mi
9:30 AM37 °FSunny.9 mph75%29.86 "Hg10 mi
9:00 AM36 °FClear.10 mph81%29.86 "Hg6 mi
8:30 AM34 °FClear.9 mph81%29.89 "Hg6 mi
8:00 AM34 °FSunny.9 mph81%29.89 "Hg10 mi
7:30 AM36 °FSunny.12 mph75%29.89 "Hg10 mi
7:00 AM34 °FClear.10 mph81%29.89 "Hg10 mi
6:30 AM34 °FPassing clouds.9 mph81%29.89 "HgN/A
6:00 AM34 °FClear.8 mph81%29.89 "Hg4 mi
5:30 AM32 °FClear.7 mph87%29.92 "Hg4 mi
5:00 AM32 °FClear.8 mph87%29.92 "Hg5 mi
4:30 AM36 °FClear.7 mph81%29.92 "Hg10 mi
4:00 AM36 °FClear.9 mph75%29.95 "Hg10 mi
3:30 AM36 °FClear.8 mph81%29.95 "Hg10 mi
3:00 AM37 °FClear.9 mph75%29.95 "Hg10 mi
2:30 AM37 °FClear.9 mph75%29.98 "Hg10 mi
2:00 AM36 °FClear.9 mph81%29.98 "Hg10 mi
1:30 AM36 °FClear.10 mph81%29.98 "Hg10 mi
1:00 AM34 °FClear.8 mph87%30.01 "Hg10 mi
Weather by CustomWeather, © 2016

See weather overviewHow to use our weather pages